Location: Biharia
(46.4333°N, 22.8000°E)
Time: 20:10:13
(UTC+00:00)

ATLAS 3B R/B - Visible Passes

Search period start: 25 May 2022 00:00
Search period end: 04 June 2022 00:00
Orbit: 979 x 1215 km, 63.8° (Epoch: 21 May)

Date Brightness Start Highest point End Pass type
(mag) Time Alt. Az. Time Alt. Az. Time Alt. Az.
25 May 3.3 19:59:03 10° NW 20:06:16 57° NE 20:12:08 17° ESE visible
25 May 3.5 21:50:03 10° NW 21:56:54 41° WSW 21:59:21 33° SSW visible
26 May 3.8 19:11:48 10° NNW 19:18:38 41° NE 19:25:44 10° ESE visible
26 May 3.0 21:02:31 10° NW 21:09:47 63° WSW 21:13:24 33° S visible
26 May 4.7 22:55:59 10° WNW 22:59:14 13° WSW 23:00:38 13° WSW visible
27 May 2.9 20:15:07 10° NW 20:22:32 89° NE 20:27:30 24° SE visible
27 May 4.2 22:06:58 10° WNW 22:12:30 23° WSW 22:14:44 20° SW visible
28 May 3.2 19:27:50 10° NW 19:35:07 63° NE 19:41:38 15° SE visible
28 May 3.8 21:18:58 10° NW 21:25:36 36° WSW 21:28:52 25° SSW visible
29 May 3.6 18:40:34 10° NNW 18:47:33 46° NE 18:54:47 10° ESE visible
29 May 3.3 20:31:21 10° NW 20:38:32 56° WSW 20:43:03 25° S visible
29 May 4.9 22:26:07 10° W 22:27:49 11° W 22:29:32 10° WSW visible
30 May 3.0 19:43:55 10° NW 19:51:19 82° SW 19:57:16 18° SSE visible
30 May 4.5 21:36:08 10° WNW 21:41:07 20° WSW 21:44:31 15° SW visible
31 May 3.1 18:56:36 10° NW 19:03:57 71° NE 19:11:31 10° SE visible
31 May 4.0 20:47:56 10° NW 20:54:16 31° WSW 20:58:47 18° SSW visible
01 Jun 3.5 20:00:12 10° NW 20:07:15 49° WSW 20:13:05 16° S visible
02 Jun 3.1 19:12:44 10° NW 19:20:06 73° WSW 19:27:27 11° SSE visible
02 Jun 4.8 21:05:24 10° WNW 21:09:44 17° WSW 21:14:08 10° SW visible
03 Jun 4.3 20:16:55 10° WNW 20:22:56 27° WSW 20:29:04 10° SSW visible
